SCOUT X-1 DEB, 4026

Orbit data source: Space-Track

SCOUT X-1 DEB, 4026 is space debris in LEO originally from a launch on Thu, 16 Feb 1961 UTC launched from the Wallops Island (WLPIS). Debris objects in space refer to the collection of defunct objects orbiting the Earth. Examples of debris include non-operational satellites, rocket bodies, and fragments generated from explosions, collisions, or faulty payload assembly.

Loading next visibility...
Identifier
4026, 1961-004G
Orbit
LEO
Country
Flag of USUS
Related business
Manufacturer
Unknown
Mission
Spacecraft
Bus & Motor
Unknown
Mass
Unknown
Launch date (UTC)
1961-02-16 (65 years ago)
Launch vehicle
Unknown
Launch site
Wallops Island (WLPIS)
Object type
Payload
Rocket body
Debris
Shape & HBR
Unknown shape, 0.1 m
Radar Cross Section
Small (<0.1 m²)

Expand to show TLE details & history
Last TLE update: 1 day ago

TLE from 1 day ago
0 SCOUT X-1 DEB
1 04026U 61004G   25349.37438242  .00013195  00000-0  25627-2 0  9992
2 04026  38.8225 357.6118 0386474   1.3019 358.8658 14.24689877107534
Epoch: 2025-12-15T08:59Z
TLE epoch observation values (Epoch: 2025-12-15T08:59:06.641Z)
Latitude
Longitude
138.56027°
Altitude
531.201 km
Speed
7.744 km/s
True Right ascension
23h 50m 26s
True Declination
0° 00' 00"
Sunlit
Object was in daylight at epoch
Visualization orbit readout
Latitude
Unknown
Longitude
Unknown
Altitude
Unknown
Speed
Unknown
Apparent Right ascension
Unknown
Apparent Declination
Unknown
Sunlit
N/A
Visualization observer readout
Local Sidereal Time
13:11:22
Azimuth
Unknown
Elevation
Unknown
Doppler factor
Unknown
Orbital elements
Apogee altitude
1,089.944 km
Perigee altitude
534.179 km
Semi-major axis
7,190.198 km
Eccentricity
0.03865
Inclination
38.8225°
RAAN
357.6118°
Arg. of periapsis
1.3019°
True anomaly
358.7737°
Mean anomaly
358.8658°
Eccentric anomaly
358.82021°
Mean motion
3.55985 °/min
Orbital period
101.13 mins
BSTAR
0.0025627
Loading maneuver chart data...
Computing Atmospheric mass density...
Loading historical data...
Loading historical data...
Loading historical data...
Loading historical data...
Loading historical data...
Loading historical data...
Loading historical data...

Documentation

Showing up to 5 results
|